Macomb, IL

4:24 AM CDT on March 28, 2017 (GMT -0500)
Macomb Municipal

Weather History for KMQB - November, 2012

Change the Weather History Date:

Friday, November 9, 2012

  Actual Average (KBRL) Record (KBRL)
Temperature  
Mean Temperature 54 °F -  
Max Temperature 67 °F 47 °F 76 °F (1984)
Min Temperature 40 °F 31 °F 11 °F (1991)
Degree Days  
Heating Degree Days 12    
Growing Degree Days 4 (Base 50)    
Moisture  
Dew Point 45 °F    
Average Humidity 76    
Maximum Humidity 93    
Minimum Humidity 51    
Precipitation  
Precipitation 0.00 in - - ()
Sea Level Pressure  
Sea Level Pressure 29.97 in    
Wind  
Wind Speed 7 mph (SSE)    
Max Wind Speed 14 mph    
Max Gust Speed 18 mph    
Visibility 9 miles    
Events      
Averages and records for this station are not official NWS values.
T = Trace of Precipitation, MM = Missing Value Source: NWS Daily Summary

Daily Weather History Graph

Daily Weather History Graph

Search for Another Location

Airport or City:

Trip Planner

Search our weather history database for the weather conditions in past years. The results will help you decide how hot, cold, wet, or windy it might be!

Date:

Astronomy

Nov. 09, 2012 Rise Set
Actual Time 6:42 AM CST 4:49 PM CST
Civil Twilight 6:13 AM CST 5:18 PM CST
Nautical Twilight 5:40 AM CST 5:51 PM CST
Astronomical Twilight 5:08 AM CST 6:23 PM CST
Moon 1:40 AM CST (11/9) 2:04 PM CST (11/9)
Length of Visible Light 11h 05m
Length of Day
10h 07m
Waning Crescent, 23% of the Moon is Illuminated
Nov 9
Waning Crescent
Nov 13
New
Nov 20
First Quarter
Nov 28
Full
Dec 6
Last Quarter

Hourly Weather History & Observations

Time (CST) Temp. Windchill Dew Point Humidity Pressure Visibility Wind Dir Wind Speed Gust Speed Precip Events Conditions
12:15 AM 41.5 °F 37.1 °F 38.3 °F 88% 30.06 in 7.0 mi SE 6.9 mph - N/A   Clear
12:35 AM 41.0 °F 36.4 °F 37.9 °F 89% 30.05 in 7.0 mi SE 6.9 mph - N/A   Clear
12:55 AM 41.0 °F 37.1 °F 38.3 °F 90% 30.05 in 7.0 mi SE 5.8 mph - N/A   Clear
1:15 AM 40.6 °F 36.7 °F 38.1 °F 91% 30.05 in 7.0 mi SE 5.8 mph - N/A   Clear
1:35 AM 40.3 °F 37.1 °F 37.8 °F 91% 30.05 in 7.0 mi SE 4.6 mph - N/A   Clear
1:55 AM 40.3 °F 37.1 °F 37.8 °F 91% 30.05 in 7.0 mi SE 4.6 mph - N/A   Scattered Clouds
2:15 AM 41.5 °F 37.8 °F 39.2 °F 91% 30.04 in 7.0 mi SE 5.8 mph - N/A   Mostly Cloudy
2:35 AM 42.8 °F 40.1 °F 39.2 °F 87% 30.04 in 7.0 mi SE 4.6 mph - N/A   Overcast
2:55 AM 43.3 °F 39.2 °F 40.1 °F 88% 30.04 in 7.0 mi SSE 6.9 mph - N/A   Overcast
3:15 AM 42.3 °F 37.3 °F 39.2 °F 89% 30.04 in 7.0 mi SE 8.1 mph - N/A   Scattered Clouds
3:35 AM 42.3 °F 37.9 °F 39.2 °F 89% 30.03 in 7.0 mi SE 6.9 mph - N/A   Scattered Clouds
3:55 AM 42.1 °F 37.7 °F 39.2 °F 90% 30.04 in 7.0 mi SSE 6.9 mph - N/A   Mostly Cloudy
4:15 AM 42.1 °F 37.7 °F 39.4 °F 90% 30.03 in 7.0 mi SE 6.9 mph - N/A   Overcast
4:35 AM 42.8 °F 38.0 °F 39.2 °F 87% 30.03 in 7.0 mi SE 8.1 mph - N/A   Overcast
4:55 AM 43.2 °F 38.4 °F 39.7 °F 88% 30.04 in 7.0 mi SSE 8.1 mph - N/A   Overcast
5:15 AM 42.1 °F 37.7 °F 39.2 °F 90% 30.04 in 7.0 mi SSE 6.9 mph - N/A   Scattered Clouds
5:35 AM 41.5 °F 37.1 °F 38.8 °F 90% 30.04 in 7.0 mi SSE 6.9 mph - N/A   Clear
5:55 AM 41.4 °F 36.8 °F 38.8 °F 91% 30.04 in 7.0 mi SE 6.9 mph - N/A   Scattered Clouds
6:15 AM 41.2 °F 36.6 °F 38.7 °F 91% 30.03 in 7.0 mi SSE 6.9 mph - N/A   Scattered Clouds
6:35 AM 41.0 °F 36.4 °F 39.2 °F 93% 30.03 in 5.0 mi SE 6.9 mph - N/A   Scattered Clouds
6:55 AM 41.5 °F 37.1 °F 39.4 °F 92% 30.03 in 5.0 mi SE 6.9 mph - N/A   Mostly Cloudy
7:15 AM 41.7 °F 37.3 °F 39.2 °F 91% 30.03 in 5.0 mi SSE 6.9 mph - N/A   Scattered Clouds
7:35 AM 42.8 °F 38.0 °F 39.7 °F 89% 30.04 in 5.0 mi SE 8.1 mph - N/A   Clear
7:55 AM 44.2 °F 39.7 °F 40.8 °F 88% 30.04 in 7.0 mi SE 8.1 mph - N/A   Mostly Cloudy
8:15 AM 45.0 °F 40.6 °F 41.2 °F 87% 30.03 in 7.0 mi SSE 8.1 mph - N/A   Overcast
8:35 AM 45.7 °F 42.0 °F 41.4 °F 85% 30.03 in 7.0 mi SSE 6.9 mph - N/A   Overcast
8:55 AM 47.1 °F - 42.4 °F 84% 30.03 in 7.0 mi SSE 6.9 mph - N/A   Overcast
9:15 AM 48.7 °F - 43.0 °F 80% 30.02 in 10.0 mi SSE 9.2 mph - N/A   Mostly Cloudy
9:35 AM 51.4 °F - 43.9 °F 75% 30.01 in 10.0 mi South 9.2 mph - N/A   Scattered Clouds
9:55 AM 53.6 °F - 45.0 °F 73% 30.01 in 10.0 mi South 8.1 mph - N/A   Clear
10:15 AM 56.3 °F - 45.0 °F 66% 30.02 in 10.0 mi South 10.4 mph - N/A   Clear
10:35 AM 57.2 °F - 45.3 °F 65% 30.01 in 10.0 mi South 8.1 mph - N/A   Clear
10:55 AM 59.5 °F - 46.0 °F 61% 30.00 in 10.0 mi South 9.2 mph - N/A   Clear
11:15 AM 61.2 °F - 46.6 °F 59% 30.00 in 10.0 mi South 9.2 mph - N/A   Clear
11:35 AM 61.9 °F - 46.6 °F 57% 29.98 in 10.0 mi South 6.9 mph - N/A   Clear
11:55 AM 62.8 °F - 46.9 °F 56% 29.97 in 10.0 mi South 9.2 mph - N/A   Clear
12:15 PM 62.4 °F - 47.1 °F 57% 29.96 in 10.0 mi South 8.1 mph - N/A   Clear
12:35 PM 63.0 °F - 47.7 °F 57% 29.95 in 10.0 mi South 6.9 mph - N/A   Clear
12:55 PM 64.4 °F - 47.8 °F 55% 29.95 in 10.0 mi SSE 5.8 mph - N/A   Clear
1:15 PM 65.3 °F - 48.2 °F 54% 29.94 in 10.0 mi South 6.9 mph - N/A   Clear
1:35 PM 66.2 °F - 48.4 °F 53% 29.93 in 10.0 mi SE 6.9 mph - N/A   Clear
1:55 PM 66.9 °F - 48.6 °F 52% 29.93 in 10.0 mi SSE 6.9 mph - N/A   Clear
2:15 PM 67.3 °F - 49.1 °F 52% 29.92 in 10.0 mi SSE 6.9 mph - N/A   Clear
2:35 PM 67.8 °F - 49.1 °F 51% 29.91 in 10.0 mi SE 10.4 mph - N/A   Clear
2:55 PM 67.5 °F - 49.5 °F 52% 29.92 in 10.0 mi SE 9.2 mph - N/A   Clear
3:15 PM 67.6 °F - 49.3 °F 52% 29.91 in 10.0 mi SSE 11.5 mph - N/A   Clear
3:35 PM 67.1 °F - 49.1 °F 52% 29.92 in 10.0 mi SSE 13.8 mph 18.4 mph N/A   Clear
3:55 PM 65.8 °F - 49.3 °F 55% 29.92 in 10.0 mi SSE 10.4 mph - N/A   Clear
4:15 PM 64.9 °F - 49.6 °F 58% 29.92 in 10.0 mi SSE 6.9 mph - N/A   Clear
4:35 PM 63.9 °F - 50.0 °F 61% 29.92 in 10.0 mi SE 6.9 mph - N/A   Clear
4:55 PM 62.6 °F - 50.0 °F 63% 29.91 in 10.0 mi SE 6.9 mph - N/A   Clear
5:15 PM 61.2 °F - 50.0 °F 67% 29.90 in 10.0 mi SE 8.1 mph - N/A   Clear
5:35 PM 59.9 °F - 50.0 °F 70% 29.90 in 10.0 mi SE 6.9 mph - N/A   Clear
5:55 PM 58.6 °F - 49.8 °F 72% 29.90 in 10.0 mi SE 6.9 mph - N/A   Clear
6:15 PM 59.0 °F - 49.6 °F 71% 29.90 in 10.0 mi SE 6.9 mph - N/A   Clear
6:35 PM 58.6 °F - 49.5 °F 72% 29.90 in 10.0 mi SE 6.9 mph - N/A   Clear
6:55 PM 58.3 °F - 49.5 °F 72% 29.90 in 10.0 mi SE 6.9 mph - N/A   Clear
7:15 PM 58.5 °F - 50.0 °F 73% 29.90 in 10.0 mi ESE 6.9 mph - N/A   Clear
7:35 PM 58.5 °F - 50.0 °F 73% 29.90 in 10.0 mi ESE 8.1 mph - N/A   Clear
7:55 PM 58.3 °F - 50.0 °F 74% 29.90 in 10.0 mi ESE 8.1 mph - N/A   Clear
8:15 PM 58.1 °F - 50.2 °F 75% 29.90 in 10.0 mi ESE 6.9 mph - N/A   Clear
8:35 PM 57.4 °F - 50.2 °F 77% 29.90 in 10.0 mi SE 6.9 mph - N/A   Clear
8:55 PM 57.2 °F - 50.4 °F 78% 29.90 in 10.0 mi SE 6.9 mph - N/A   Clear
9:15 PM 57.0 °F - 50.4 °F 78% 29.91 in 10.0 mi SE 5.8 mph - N/A   Clear
9:35 PM 56.5 °F - 50.5 °F 80% 29.92 in 10.0 mi SE 5.8 mph - N/A   Clear
9:55 PM 56.7 °F - 50.9 °F 81% 29.93 in 10.0 mi SE 4.6 mph - N/A   Scattered Clouds
10:15 PM 55.8 °F - 50.5 °F 83% 29.93 in 10.0 mi SSE 5.8 mph - N/A   Scattered Clouds
10:35 PM 54.5 °F - 50.0 °F 85% 29.93 in 10.0 mi South 4.6 mph - N/A   Clear
10:55 PM 54.0 °F - 49.5 °F 85% 29.94 in 10.0 mi SSE 6.9 mph - N/A   Clear
11:15 PM 55.0 °F - 50.2 °F 84% 29.94 in 10.0 mi SSE 8.1 mph - N/A   Clear
11:35 PM 54.9 °F - 50.4 °F 85% 29.94 in 10.0 mi SSE 8.1 mph - N/A   Clear
11:55 PM 55.8 °F - 51.1 °F 84% 29.95 in 10.0 mi SSE 4.6 mph - N/A   Mostly Cloudy